Regional Weather Roundup
Issued by NWS

Home | Current Version | Previous Version | Graphics & Text | Print | Product List | Glossary On
Versions: 1 2 3 4 5 6 7 8 9 10 11 12 13 14 15 16 17 18 19 20 21 22 23 24 25 26 27 28 29 30 31 32 33 34 35 36 37 38 39 40 41 42 43 44 45 46 47 48 49 50
000
ASUS43 KFSD 010010
RWRSD

WEATHER ROUNDUP FOR SOUTH DAKOTA
NATIONAL WEATHER SERVICE SIOUX FALLS SD
700 PM CDT FRI OCT 31 2014

NOTE: "FAIR" INDICATES FEW OR NO CLOUDS BELOW 12,000 FEET WITH NO
SIGNIFICANT WEATHER AND/OR OBSTRUCTIONS TO VISIBILITY.


SDZ001>005-009-010-012>017-010100-
NORTHWEST AND NORTH CENTRAL SOUTH DAKOTA

CITY           SKY/WX    TMP DP  RH WIND       PRES   REMARKS
BUFFALO          N/A     45  27  49 SE23G32   29.90F
FAITH            N/A     42  12  29 SE23G35   30.07F
MOBRIDGE       CLEAR     39  12  33 SE24      30.21F
$$

SDZ012>016-024>037-041>051-057-063-072>074-010100-
SOUTHWEST AND SOUTH CENTRAL SOUTH DAKOTA

CITY           SKY/WX    TMP DP  RH WIND       PRES   REMARKS
RAPID CTY ARPT PTCLDY    47  29  49 S20G28    30.05S
PIERRE         PTCLDY    39  12  33 SE21      30.24F
CUSTER         PTCLDY    39  28  64 S6        30.06F
ELLSWORTH AFB  PTCLDY    48  29  47 S21G31    30.03F
PHILIP         PTCLDY    45  15  30 SE15      30.15F
PINE RIDGE     CLEAR     46  26  45 S14G22    30.10F
SPEARFISH      FAIR      48  36  61 S5        29.93F
WINNER         FAIR      41  10  28 SE16      30.28F
$$

SDZ004>011-016>023-039-040-010100-
NORTHEAST SOUTH DAKOTA

CITY           SKY/WX    TMP DP  RH WIND       PRES   REMARKS
ABERDEEN       PTCLDY    28  16  60 S8        30.38F WCI  20
WATERTOWN      CLEAR     32  18  56 SE7       30.40F WCI  26
SISSETON         N/A     30  21  69 S7        30.42F WCI  23
$$

SDZ017-020-022-023-036>040-048>070-010100-
SOUTHEAST SOUTH DAKOTA

CITY           SKY/WX    TMP DP  RH WIND       PRES   REMARKS
SIOUX FALLS    PTCLDY    34  16  47 SE7       30.44F WCI  28
HURON          PTCLDY    35  17  47 SE7       30.39F WCI  29
CHAMBERLAIN    CLEAR     34  16  47 SE13      30.33F WCI  25
MITCHELL       PTCLDY    35  18  49 SE8       30.41F WCI  29
YANKTON        PTCLDY    36  18  48 E6        30.44F
$$

ABBREVIATIONS USED IN REMARKS
   TC - TEMPERATURE IN CELSIUS
  WCI - WIND CHILL INDEX
   HX - HEAT INDEX
  VSB - VISIBILITY




USA.gov is the U.S. government's official web portal to all federal, state and local government web resources and services.